Wind_Speed
41 38 35 33 35 36 37 31 18 28 34 28 27 20 21 22 24 26 16 13 14 13 11 10 8 5 5 9 10 11 10 8 6 4 3 5 4 4 5 5 5 7 7 8 10 11 11 11 12
43 41 40 37 39 37 32 28 24 34 21 40 30 25 23 20 24 20 18 15 15 14 11 10 10 9 6 6 6 5 5 4 3 2 2 1 0 2 3 5 7 7 7 7 10 11 11 12 14
47 45 45 43 42 41 28 19 25 31 32 40 34 29 22 34 22 21 18 18 17 17 13 9 7 7 7 7 7 7 6 5 5 4 4 4 5 5 6 7 8 9 8 9 11 12 13 15 17
46 47 50 50 46 39 38 25 28 41 40 39 40 36 38 27 27 25 23 24 20 19 17 15 12 8 8 9 9 9 9 8 8 8 8 8 10 9 9 9 10 11 10 10 11 13 15 16 17
42 47 51 53 50 41 34 39 23 32 34 26 41 40 38 34 31 28 25 25 25 22 19 18 17 14 11 11 11 11 11 10 10 11 11 12 13 11 11 9 10 12 11 11 12 14 16 17 19
43 44 50 51 50 47 45 35 48 39 37 30 32 44 37 35 34 32 31 27 26 25 24 24 22 21 15 13 15 16 15 15 14 14 14 13 13 13 13 12 12 13 12 13 15 17 18 19 20
42 45 47 45 43 44 45 46 52 48 41 33 34 34 47 44 42 38 34 33 29 26 24 24 25 26 21 17 17 18 19 19 18 18 16 16 14 14 15 14 14 14 16 18 20 21 21 22 24
45 46 48 45 43 43 30 41 53 51 46 51 51 39 42 51 47 43 38 36 35 34 30 29 29 28 28 24 24 22 22 22 22 22 19 19 18 17 17 16 17 17 19 22 24 25 25 26 28
48 50 48 45 43 40 33 39 54 47 54 57 54 56 54 49 49 45 42 39 38 37 33 30 31 32 31 30 29 28 26 26 26 26 23 22 21 19 19 19 19 20 22 24 26 27 27 28 29
50 50 47 45 47 46 40 36 38 47 53 60 52 55 59 58 48 41 47 46 44 41 40 39 39 37 33 31 29 28 29 28 29 29 26 24 24 22 22 22 22 23 25 26 28 29 29 30 29
49 50 49 51 51 50 50 43 43 51 43 51 55 63 56 54 55 49 45 52 52 48 45 45 41 38 36 33 33 31 30 29 27 27 29 27 25 26 25 25 25 27 29 32 32 32 32 31 31
49 49 50 54 56 54 54 57 57 52 40 38 54 59 56 51 50 51 55 55 55 54 51 46 42 40 38 35 32 32 31 31 30 29 29 29 29 28 29 30 31 32 34 36 36 37 36 36 35
39 44 53 56 57 58 60 59 59 54 49 47 58 59 57 57 55 53 52 56 57 58 56 54 51 47 45 42 39 37 35 32 33 33 33 31 29 33 35 35 36 36 37 38 39 39 39 40 40
30 33 36 46 59 62 63 63 63 58 56 43 60 62 54 64 56 58 57 53 52 45 61 61 56 51 49 47 45 42 38 36 36 36 33 32 35 37 38 38 38 39 40 41 42 42 43 43 45
30 34 36 35 39 54 68 71 63 63 60 64 63 62 57 60 65 58 64 64 59 61 30 54 53 50 47 44 44 42 39 37 38 38 37 37 39 41 41 41 41 41 42 44 46 47 48 48 49
28 33 36 35 37 42 53 67 69 68 68 67 66 61 54 63 64 64 66 64 61 65 67 48 49 50 51 45 44 43 41 39 41 42 42 42 44 44 44 45 46 45 47 47 47 48 50 51 52
32 31 34 33 34 38 41 46 63 67 61 71 73 71 64 72 62 68 66 64 67 68 65 58 50 51 50 49 48 46 47 46 47 47 46 47 47 47 47 48 48 48 49 48 49 51 52 53 51
26 31 31 32 25 27 36 42 49 60 66 54 73 74 63 72 64 63 74 68 62 65 65 63 56 54 54 54 54 51 52 50 50 51 51 51 49 50 47 47 47 46 47 50 51 51 52 49 46
29 25 22 24 21 25 29 36 42 39 47 61 47 63 70 68 67 61 55 62 63 66 64 65 63 62 60 59 59 60 58 56 54 56 55 54 52 50 50 40 53 50 50 49 50 49 48 47 48
33 27 23 23 18 22 26 30 34 34 41 43 54 63 67 69 59 64 60 61 67 69 72 72 68 66 66 66 64 64 63 61 58 58 55 53 52 54 53 51 52 52 50 49 49 47 48 49 51
31 23 21 19 16 17 23 29 33 35 36 38 46 52 63 74 61 61 68 51 70 77 73 66 63 66 70 73 70 67 65 62 62 63 63 54 53 55 51 51 52 51 49 50 49 50 51 52 53
28 23 21 20 17 15 24 20 22 21 26 35 35 42 43 60 65 56 64 74 55 55 62 71 75 75 75 69 66 63 58 62 64 52 48 49 50 50 50 50 49 48 49 51 53 53 53 54 54
24 19 18 19 22 16 23 32 17 22 22 22 33 27 29 33 57 54 57 67 68 64 46 64 70 67 58 60 56 60 41 35 34 41 43 48 48 46 47 46 49 50 51 53 53 55 54 55 56
21 19 20 19 20 24 18 21 23 21 31 23 25 25 32 32 35 40 49 66 64 55 53 64 51 50 53 38 35 25 32 37 40 42 43 44 46 47 48 50 52 54 54 55 56 57 59 59 59
24 22 18 19 22 24 17 24 23 24 28 23 32 28 25 23 23 38 42 50 47 48 66 37 51 27 25 27 29 31 35 39 43 44 46 47 47 51 53 54 55 57 57 58 60 60 61 61 61
26 24 19 19 15 16 19 25 28 37 21 22 21 20 23 20 22 19 21 30 30 35 22 23 23 25 29 31 35 40 44 46 47 48 48 48 51 54 57 59 57 56 58 60 62 63 62 63 63
21 29 22 22 25 24 22 21 28 38 19 14 17 20 16 16 19 24 25 23 30 28 27 30 31 32 35 38 43 48 50 52 51 51 53 55 57 55 55 57 59 61 62 62 63 64 64 65 65
30 24 27 28 21 26 25 36 20 30 35 29 22 23 22 22 20 21 25 31 32 32 33 34 35 38 42 45 49 51 53 55 56 57 58 57 57 58 59 62 64 63 63 65 66 66 66 65 62
35 30 35 27 28 19 18 23 24 25 27 25 24 25 26 27 28 29 31 32 34 37 39 40 42 45 47 50 53 56 56 57 60 58 57 58 60 63 64 65 65 65 66 66 66 66 66 66 64
33 34 24 27 31 32 28 23 29 21 32 22 26 27 28 28 29 31 32 36 38 41 44 45 47 48 49 49 51 52 51 52 55 57 58 62 63 65 67 66 64 64 65 67 69 68 67 66 65
Wind_Direction
232 232 225 220 222 220 214 215 221 233 232 238 233 215 192 206 201 216 211 203 184 167 170 177 178 198 209 213 211 215 220 226 229 212 159 125 101 65 48 41 38 19 1 4 5 2 354 348 346
232 235 232 228 224 221 221 214 229 227 221 237 240 233 224 215 220 225 215 206 198 180 173 183 191 190 206 219 215 214 212 222 222 200 168 167 54 351 342 341 333 338 334 352 347 345 343 340 339
232 232 235 234 229 222 216 232 237 242 232 234 234 235 219 222 219 227 225 220 215 199 188 194 190 202 215 225 227 229 226 223 239 248 259 279 287 296 303 313 313 314 322 341 340 338 337 335 334
232 231 232 236 234 227 223 212 221 232 234 229 231 232 234 232 228 226 225 227 227 219 209 209 212 207 219 223 231 231 240 248 258 264 273 283 289 294 297 306 309 310 320 332 332 330 326 326 325
232 232 231 233 236 229 225 214 259 240 233 233 227 227 235 229 229 228 225 230 235 236 233 227 226 224 232 242 245 241 241 248 259 270 279 285 288 294 299 302 307 306 316 321 320 316 314 315 318
233 234 234 233 234 234 230 228 224 232 229 236 233 225 232 224 229 228 227 229 237 242 244 240 241 235 240 251 255 253 256 262 262 266 271 277 283 291 292 296 296 298 304 307 306 306 304 305 308
233 235 240 238 235 238 243 236 228 231 229 236 235 224 230 229 228 225 228 232 236 237 240 249 251 247 248 258 260 261 260 261 267 268 272 275 273 277 283 286 289 296 300 303 303 300 298 299 303
234 233 235 235 231 229 235 251 239 225 231 234 231 221 230 241 223 222 228 233 232 239 246 250 252 256 252 262 264 266 263 264 267 270 272 274 273 272 272 278 289 294 300 303 303 301 301 301 304
232 233 233 236 235 230 223 241 248 238 225 230 232 230 233 242 205 222 225 231 234 237 239 245 247 248 253 259 264 269 268 263 264 266 270 272 269 271 275 280 286 293 298 298 299 299 298 298 300
234 236 237 237 235 232 229 234 244 236 238 232 232 235 233 239 245 238 233 234 237 239 240 242 245 250 258 261 261 265 268 265 267 264 264 264 267 272 274 279 284 287 291 292 293 292 290 292 294
238 240 238 235 236 231 230 235 239 239 240 238 235 231 233 239 241 241 236 238 236 237 240 243 245 248 251 254 258 262 266 266 272 267 264 262 267 272 273 277 280 284 285 286 288 286 285 287 285
238 239 238 242 238 236 232 233 234 236 230 238 243 235 231 237 237 242 245 236 237 239 238 240 240 243 246 250 256 256 263 263 268 268 265 264 269 268 274 277 279 281 285 287 287 286 286 285 284
243 242 241 240 238 240 239 234 236 236 231 233 240 240 233 237 233 228 231 237 245 245 242 237 238 242 247 251 256 257 259 264 264 262 263 264 268 274 277 280 282 284 285 285 286 286 285 286 287
245 245 247 247 243 240 240 240 236 233 235 232 244 245 234 234 236 228 229 231 242 244 240 236 238 241 247 252 255 256 258 261 264 262 259 263 271 275 276 278 281 283 284 283 283 282 283 284 286
248 250 251 254 256 248 241 240 238 237 229 235 236 244 238 235 234 222 225 231 238 247 197 224 235 241 245 250 255 254 254 258 264 260 260 266 271 272 274 277 279 280 280 281 281 283 285 285 284
250 254 256 261 259 254 244 244 241 238 233 231 234 237 245 235 234 234 226 233 236 238 243 256 245 248 248 248 250 251 253 258 264 263 261 267 269 271 274 275 276 278 278 278 281 282 282 284 284
242 252 258 262 264 263 259 252 242 238 241 232 232 234 232 241 233 233 229 215 230 241 243 246 244 244 248 248 246 246 250 258 262 262 262 266 268 270 273 275 276 275 277 281 281 281 282 281 284
241 247 253 260 263 269 269 261 248 236 236 237 233 232 237 239 233 237 237 224 218 226 235 237 231 234 244 252 248 246 249 254 259 261 260 265 267 271 271 274 276 277 279 280 280 280 279 281 285
228 238 252 259 244 258 264 264 254 244 240 236 231 235 235 238 237 231 235 245 228 219 218 223 232 236 241 241 245 250 250 251 255 257 259 265 269 270 273 252 275 278 278 278 277 278 283 286 290
237 238 244 254 251 261 259 265 253 246 239 235 232 234 232 235 234 223 232 230 238 238 220 235 237 235 241 240 240 243 244 247 251 253 257 262 265 268 272 275 278 279 279 280 282 284 285 287 287
240 239 242 252 248 251 268 267 255 250 243 235 236 241 239 239 242 236 231 238 236 233 237 242 239 253 244 245 242 239 240 244 247 250 254 260 267 272 274 277 278 279 280 281 281 283 287 289 288
239 240 239 236 230 254 253 265 265 257 247 232 235 238 242 242 241 238 236 233 231 241 250 250 251 252 241 237 237 242 244 243 245 253 260 263 270 272 274 275 276 278 279 281 285 287 286 283 282
235 230 251 243 241 234 256 271 216 241 235 230 235 231 230 235 245 244 236 240 241 244 264 248 242 237 235 239 235 240 257 263 265 269 267 269 271 272 273 276 277 278 279 282 282 282 281 281 281
225 216 226 245 251 252 244 263 274 261 203 225 229 212 215 225 240 239 238 236 246 253 257 237 236 241 250 254 251 260 264 265 264 266 268 269 271 274 275 274 275 277 278 278 280 279 279 280 282
214 212 227 235 239 252 240 257 262 263 226 197 201 215 203 205 213 230 228 232 240 242 234 242 237 246 253 261 258 257 262 263 266 267 269 272 273 271 269 269 274 277 278 278 278 277 278 279 283
218 217 208 224 238 252 247 216 243 259 265 188 193 213 205 207 207 199 208 210 218 224 249 238 242 243 247 251 254 257 259 263 267 269 273 268 266 266 270 275 275 272 273 274 274 274 279 282 283
218 210 198 234 215 229 211 232 228 246 278 250 241 227 224 228 212 198 195 205 221 225 233 233 235 244 249 255 256 258 261 263 268 271 270 270 270 271 271 273 273 272 272 275 278 281 282 283 284
199 193 212 220 246 212 229 207 226 248 259 254 240 232 236 237 236 228 215 214 223 227 234 240 243 247 250 251 257 260 261 264 266 269 271 272 273 273 272 270 273 277 280 284 285 284 284 283 285
204 217 202 205 223 241 250 247 216 202 244 246 241 233 238 240 243 241 241 238 236 238 240 243 248 251 253 256 258 260 260 263 267 269 270 271 271 272 275 279 280 282 283 283 283 283 284 284 284
202 211 225 203 220 217 214 240 253 210 227 238 252 243 241 246 244 243 240 243 242 246 247 246 250 254 256 259 261 264 266 267 269 270 271 273 276 279 280 280 281 282 281 281 282 281 282 282 282
Height
5869 5871 5875 5878 5882 5883 5887 5893 5901 5900 5898 5898 5898 5904 5906 5908 5904 5907 5907 5908 5907 5908 5909 5910 5910 5910 5910 5911 5911 5912 5912 5913 5913 5913 5912 5912 5911 5911 5912 5912 5912 5911 5912 5912 5911 5910 5909 5908 5907
5864 5866 5869 5873 5874 5877 5886 5891 5899 5895 5898 5889 5897 5902 5904 5906 5904 5905 5907 5907 5907 5908 5908 5909 5910 5911 5911 5910 5910 5910 5911 5911 5911 5912 5912 5911 5911 5911 5911 5912 5912 5911 5910 5909 5909 5909 5908 5907 5906
5856 5860 5862 5866 5869 5872 5883 5895 5897 5888 5890 5886 5893 5898 5901 5896 5901 5902 5904 5906 5907 5907 5907 5908 5908 5909 5910 5910 5910 5910 5910 5910 5911 5911 5911 5911 5910 5910 5910 5910 5910 5910 5909 5908 5907 5908 5907 5906 5905
5849 5853 5856 5855 5862 5872 5877 5883 5878 5882 5879 5885 5888 5893 5892 5897 5897 5899 5901 5904 5905 5905 5906 5907 5908 5908 5908 5909 5909 5909 5910 5909 5909 5910 5910 5909 5909 5909 5909 5908 5909 5909 5908 5907 5906 5906 5906 5905 5904
5840 5843 5846 5850 5857 5865 5872 5875 5869 5872 5879 5883 5884 5889 5887 5891 5894 5896 5898 5900 5902 5904 5904 5905 5905 5906 5907 5908 5908 5908 5909 5909 5909 5908 5908 5907 5907 5908 5908 5908 5908 5908 5907 5905 5905 5904 5904 5904 5903
5833 5836 5837 5843 5852 5856 5859 5864 5865 5868 5873 5877 5879 5884 5885 5888 5889 5891 5894 5896 5898 5900 5902 5903 5903 5903 5905 5905 5906 5906 5907 5907 5907 5907 5906 5905 5904 5905 5906 5906 5906 5906 5904 5903 5903 5903 5902 5902 5901
5825 5828 5830 5838 5845 5850 5853 5854 5858 5863 5870 5872 5872 5879 5873 5880 5880 5884 5888 5890 5893 5894 5897 5898 5900 5900 5901 5902 5903 5903 5904 5904 5904 5904 5903 5904 5903 5903 5903 5903 5903 5902 5902 5901 5901 5900 5899 5899 5899
5817 5820 5821 5828 5836 5844 5851 5844 5849 5854 5860 5856 5861 5870 5868 5865 5869 5872 5879 5884 5887 5889 5891 5893 5895 5896 5897 5898 5899 5899 5900 5901 5901 5901 5901 5901 5901 5901 5901 5901 5900 5900 5900 5899 5898 5897 5897 5897 5897
5807 5811 5814 5822 5829 5837 5842 5840 5836 5847 5847 5849 5852 5857 5861 5843 5836 5869 5868 5877 5881 5884 5886 5888 5889 5890 5892 5894 5895 5895 5896 5897 5898 5898 5898 5898 5898 5898 5898 5898 5897 5897 5896 5896 5895 5895 5895 5894 5894
5798 5802 5810 5816 5819 5823 5830 5834 5833 5837 5838 5841 5848 5851 5855 5853 5859 5868 5864 5871 5875 5877 5880 5881 5883 5885 5887 5888 5890 5891 5892 5893 5894 5894 5894 5895 5895 5895 5895 5894 5893 5893 5892 5891 5891 5891 5891 5891 5891
5791 5796 5802 5803 5806 5812 5818 5821 5824 5828 5829 5835 5840 5835 5846 5848 5850 5854 5861 5865 5868 5870 5872 5874 5876 5878 5880 5882 5884 5886 5886 5888 5889 5889 5890 5890 5890 5891 5891 5890 5889 5888 5887 5886 5886 5886 5886 5887 5886
5781 5787 5791 5793 5796 5801 5807 5810 5812 5818 5828 5832 5826 5832 5842 5845 5848 5853 5856 5854 5858 5861 5865 5868 5869 5871 5874 5876 5877 5880 5881 5882 5883 5884 5885 5885 5885 5886 5886 5885 5884 5883 5882 5881 5881 5881 5882 5881 5880
5773 5777 5778 5781 5786 5790 5793 5799 5804 5810 5817 5819 5816 5823 5834 5834 5840 5841 5844 5845 5850 5855 5856 5859 5861 5863 5866 5868 5871 5873 5874 5875 5877 5878 5879 5880 5880 5881 5880 5880 5879 5878 5877 5876 5876 5875 5875 5875 5875
5765 5766 5767 5770 5774 5778 5782 5786 5789 5800 5808 5810 5806 5811 5823 5825 5830 5831 5839 5840 5843 5846 5841 5842 5847 5854 5859 5863 5864 5865 5867 5869 5870 5871 5873 5874 5874 5875 5875 5874 5873 5872 5871 5870 5869 5869 5868 5869 5867
5756 5757 5758 5761 5762 5767 5769 5768 5782 5790 5797 5797 5797 5800 5811 5815 5822 5823 5823 5830 5839 5837 5794 5830 5839 5843 5850 5856 5858 5859 5861 5862 5863 5865 5867 5867 5867 5867 5867 5867 5866 5865 5864 5862 5862 5862 5862 5861 5859
5747 5747 5749 5751 5752 5753 5752 5764 5771 5776 5780 5784 5786 5790 5796 5799 5808 5813 5814 5820 5826 5828 5816 5822 5830 5834 5842 5846 5850 5853 5854 5855 5856 5857 5859 5860 5859 5860 5860 5859 5858 5857 5856 5855 5855 5854 5853 5851 5850
5738 5740 5741 5742 5741 5741 5746 5754 5757 5761 5762 5768 5774 5779 5786 5786 5798 5802 5804 5802 5807 5813 5814 5818 5820 5828 5834 5837 5840 5843 5845 5847 5848 5849 5851 5851 5852 5852 5852 5851 5850 5850 5848 5847 5847 5845 5844 5843 5843
5732 5732 5733 5734 5735 5733 5736 5740 5740 5745 5747 5754 5763 5770 5772 5776 5787 5792 5795 5795 5797 5803 5806 5808 5814 5820 5825 5829 5831 5833 5835 5838 5839 5840 5841 5842 5844 5843 5843 5844 5841 5842 5840 5839 5837 5838 5836 5835 5834
5723 5724 5727 5727 5729 5728 5727 5727 5729 5733 5734 5742 5753 5759 5762 5766 5771 5781 5784 5790 5796 5793 5795 5796 5804 5810 5814 5816 5819 5822 5825 5827 5829 5830 5832 5834 5834 5833 5832 5841 5833 5834 5832 5832 5830 5828 5828 5826 5824
5715 5716 5719 5721 5722 5722 5721 5720 5722 5723 5726 5731 5739 5743 5751 5755 5761 5767 5768 5779 5786 5791 5776 5789 5793 5799 5802 5805 5808 5810 5813 5816 5820 5821 5823 5824 5823 5823 5823 5825 5823 5824 5822 5821 5819 5819 5817 5816 5815
5709 5711 5712 5715 5718 5716 5718 5716 5717 5716 5716 5722 5727 5731 5739 5746 5753 5757 5764 5770 5779 5770 5771 5788 5791 5792 5792 5794 5797 5800 5803 5806 5808 5810 5811 5815 5815 5815 5815 5814 5814 5814 5812 5810 5811 5809 5808 5806 5804
5702 5705 5706 5708 5711 5715 5712 5713 5712 5710 5712 5714 5722 5727 5731 5736 5743 5750 5754 5760 5763 5763 5771 5777 5777 5779 5781 5783 5787 5792 5793 5795 5797 5800 5803 5807 5806 5806 5805 5804 5804 5803 5801 5800 5798 5799 5798 5798 5797
5698 5700 5703 5703 5706 5708 5709 5705 5705 5707 5710 5714 5718 5720 5724 5728 5732 5741 5747 5748 5751 5756 5764 5770 5768 5771 5775 5775 5779 5782 5783 5786 5790 5792 5794 5795 5796 5795 5794 5793 5790 5790 5790 5789 5789 5787 5788 5786 5784
5692 5696 5700 5702 5705 5704 5705 5704 5698 5699 5701 5712 5715 5718 5718 5721 5725 5730 5735 5739 5745 5753 5755 5759 5759 5764 5768 5769 5771 5776 5780 5781 5782 5783 5785 5784 5783 5784 5782 5780 5779 5780 5780 5779 5777 5777 5776 5774 5771
5684 5691 5696 5699 5700 5701 5704 5700 5702 5694 5700 5701 5704 5712 5715 5716 5717 5721 5728 5733 5740 5745 5746 5746 5750 5756 5762 5766 5768 5771 5774 5774 5773 5775 5773 5775 5775 5772 5769 5770 5770 5770 5769 5768 5766 5764 5763 5760 5758
5682 5687 5692 5695 5698 5699 5700 5700 5701 5692 5686 5696 5703 5708 5710 5712 5713 5715 5719 5724 5730 5736 5737 5741 5750 5754 5756 5759 5762 5765 5765 5764 5764 5765 5767 5764 5762 5760 5758 5759 5760 5760 5756 5753 5752 5751 5748 5747 5744
5678 5679 5688 5689 5691 5691 5695 5698 5696 5691 5689 5697 5701 5705 5706 5708 5711 5714 5717 5721 5726 5731 5736 5741 5745 5748 5750 5752 5754 5755 5756 5756 5754 5754 5754 5752 5752 5751 5749 5748 5746 5744 5743 5741 5738 5735 5733 5732 5730
5669 5676 5682 5683 5684 5685 5686 5687 5694 5691 5690 5693 5697 5701 5703 5705 5707 5710 5713 5717 5721 5725 5729 5733 5737 5739 5741 5743 5744 5745 5745 5744 5743 5743 5742 5741 5741 5740 5737 5735 5734 5731 5727 5724 5720 5719 5718 5716 5712
5664 5665 5670 5678 5682 5681 5681 5685 5682 5683 5685 5689 5692 5696 5699 5701 5703 5705 5709 5712 5716 5720 5722 5725 5727 5730 5732 5734 5734 5734 5733 5733 5734 5732 5730 5729 5727 5726 5723 5721 5717 5711 5709 5706 5704 5703 5702 5699 5696
5658 5662 5664 5670 5674 5676 5680 5683 5678 5674 5678 5681 5686 5689 5692 5695 5696 5699 5701 5704 5706 5709 5712 5714 5716 5720 5721 5722 5723 5723 5722 5721 5720 5719 5716 5716 5714 5711 5708 5703 5699 5694 5693 5691 5688 5687 5684 5680 5680